Precipitable_Water
0.72 0.69 0.66 0.63 0.62 0.60 0.59 0.58 0.57 0.57 0.56 0.55 0.55 0.55 0.55 0.56 0.57 0.59 0.60 0.61 0.62 0.61 0.61 0.59 0.59 0.62 0.64 0.62 0.61 0.60 0.60 0.48 0.40 0.37 0.37 0.48 0.65 0.62 0.50 0.47 0.45 0.42 0.42 0.34 0.33 0.30 0.30 0.34 0.34 0.36 0.33 0.30 0.29 0.28 0.35 0.35 0.35 0.30 0.19 0.17 0.14 0.16 0.16 0.19 0.18 0.20 0.22 0.18 0.19 0.21 0.22 0.20 0.16 0.22 0.23 0.23 0.21 0.21 0.21 0.21 0.24 0.26 0.25 0.26 0.27 0.31 0.36 0.38
0.72 0.68 0.65 0.63 0.62 0.60 0.59 0.58 0.58 0.57 0.55 0.54 0.54 0.53 0.54 0.55 0.57 0.58 0.60 0.62 0.63 0.63 0.61 0.60 0.59 0.60 0.64 0.63 0.61 0.61 0.56 0.46 0.36 0.35 0.36 0.52 0.57 0.52 0.48 0.48 0.45 0.42 0.38 0.33 0.31 0.29 0.29 0.32 0.33 0.33 0.31 0.27 0.32 0.28 0.35 0.28 0.36 0.23 0.20 0.18 0.14 0.17 0.18 0.23 0.22 0.23 0.22 0.20 0.22 0.22 0.24 0.22 0.20 0.21 0.23 0.19 0.17 0.20 0.19 0.21 0.22 0.22 0.25 0.27 0.27 0.28 0.30 0.35
0.70 0.67 0.65 0.63 0.62 0.60 0.58 0.57 0.56 0.55 0.55 0.54 0.53 0.52 0.53 0.55 0.57 0.59 0.60 0.63 0.65 0.65 0.63 0.62 0.60 0.59 0.61 0.64 0.61 0.62 0.52 0.41 0.35 0.32 0.41 0.53 0.54 0.49 0.46 0.45 0.45 0.43 0.38 0.33 0.35 0.32 0.31 0.32 0.34 0.32 0.30 0.27 0.30 0.26 0.30 0.27 0.29 0.29 0.21 0.16 0.17 0.21 0.21 0.23 0.24 0.23 0.24 0.24 0.22 0.22 0.23 0.23 0.23 0.23 0.25 0.19 0.18 0.20 0.19 0.19 0.20 0.20 0.20 0.24 0.26 0.27 0.29 0.32
0.68 0.66 0.65 0.63 0.62 0.59 0.57 0.56 0.55 0.55 0.54 0.54 0.53 0.52 0.53 0.55 0.58 0.61 0.62 0.64 0.66 0.67 0.65 0.63 0.62 0.60 0.60 0.62 0.63 0.61 0.48 0.36 0.29 0.35 0.47 0.55 0.49 0.46 0.45 0.46 0.47 0.43 0.42 0.40 0.38 0.33 0.36 0.35 0.33 0.32 0.28 0.26 0.27 0.30 0.25 0.27 0.24 0.26 0.22 0.18 0.19 0.23 0.20 0.21 0.25 0.25 0.25 0.25 0.23 0.23 0.24 0.22 0.24 0.24 0.24 0.22 0.19 0.18 0.21 0.24 0.21 0.19 0.20 0.22 0.25 0.27 0.29 0.31
0.67 0.65 0.65 0.64 0.62 0.59 0.56 0.55 0.54 0.54 0.54 0.53 0.52 0.52 0.53 0.55 0.59 0.62 0.63 0.65 0.67 0.67 0.67 0.65 0.62 0.63 0.61 0.61 0.61 0.61 0.38 0.27 0.29 0.41 0.49 0.47 0.45 0.45 0.44 0.45 0.48 0.43 0.41 0.39 0.36 0.33 0.33 0.32 0.32 0.30 0.27 0.23 0.26 0.26 0.25 0.28 0.30 0.26 0.21 0.23 0.23 0.24 0.21 0.23 0.25 0.26 0.25 0.25 0.24 0.24 0.21 0.20 0.25 0.25 0.24 0.24 0.19 0.17 0.21 0.24 0.26 0.26 0.25 0.25 0.24 0.26 0.29 0.30
0.67 0.66 0.65 0.64 0.61 0.58 0.55 0.54 0.54 0.53 0.52 0.52 0.50 0.50 0.53 0.56 0.60 0.63 0.64 0.66 0.67 0.66 0.67 0.66 0.64 0.63 0.64 0.62 0.58 0.47 0.35 0.17 0.36 0.38 0.48 0.44 0.42 0.43 0.45 0.46 0.45 0.42 0.39 0.35 0.32 0.31 0.30 0.29 0.29 0.25 0.24 0.24 0.23 0.21 0.25 0.27 0.29 0.18 0.22 0.23 0.24 0.25 0.21 0.24 0.25 0.25 0.25 0.24 0.23 0.23 0.23 0.24 0.23 0.23 0.25 0.25 0.21 0.22 0.26 0.28 0.29 0.29 0.28 0.28 0.29 0.29 0.29 0.30
0.67 0.66 0.65 0.64 0.61 0.58 0.55 0.53 0.53 0.52 0.51 0.49 0.49 0.49 0.53 0.57 0.60 0.64 0.65 0.66 0.68 0.67 0.66 0.65 0.65 0.64 0.63 0.62 0.53 0.42 0.33 0.33 0.42 0.46 0.45 0.45 0.44 0.43 0.46 0.45 0.43 0.39 0.37 0.32 0.30 0.28 0.29 0.28 0.28 0.25 0.24 0.24 0.25 0.24 0.25 0.25 0.28 0.24 0.20 0.23 0.22 0.24 0.21 0.25 0.24 0.25 0.25 0.24 0.23 0.26 0.27 0.23 0.24 0.21 0.25 0.23 0.23 0.27 0.29 0.30 0.31 0.30 0.30 0.29 0.28 0.31 0.31 0.30
0.67 0.67 0.66 0.64 0.61 0.58 0.56 0.54 0.52 0.51 0.50 0.49 0.49 0.49 0.54 0.57 0.60 0.64 0.65 0.68 0.69 0.68 0.67 0.64 0.67 0.66 0.65 0.53 0.41 0.34 0.33 0.32 0.43 0.51 0.47 0.47 0.45 0.44 0.45 0.44 0.41 0.37 0.33 0.30 0.29 0.28 0.29 0.27 0.26 0.28 0.24 0.21 0.25 0.24 0.26 0.24 0.25 0.23 0.21 0.24 0.24 0.24 0.23 0.25 0.24 0.24 0.24 0.24 0.27 0.28 0.25 0.24 0.26 0.25 0.25 0.20 0.24 0.29 0.29 0.31 0.30 0.30 0.30 0.30 0.29 0.29 0.29 0.30
0.68 0.68 0.66 0.65 0.62 0.59 0.57 0.55 0.53 0.51 0.50 0.49 0.50 0.50 0.54 0.58 0.59 0.63 0.65 0.68 0.70 0.69 0.67 0.67 0.68 0.69 0.67 0.53 0.39 0.32 0.32 0.45 0.50 0.50 0.52 0.49 0.46 0.46 0.44 0.39 0.41 0.34 0.32 0.33 0.33 0.32 0.31 0.28 0.29 0.31 0.22 0.25 0.29 0.25 0.27 0.24 0.22 0.25 0.24 0.26 0.25 0.23 0.24 0.24 0.23 0.23 0.24 0.25 0.27 0.25 0.24 0.26 0.27 0.28 0.22 0.22 0.26 0.28 0.30 0.30 0.30 0.30 0.29 0.30 0.30 0.30 0.30 0.31
0.68 0.68 0.66 0.65 0.62 0.59 0.57 0.55 0.53 0.52 0.51 0.50 0.50 0.52 0.54 0.57 0.59 0.62 0.65 0.69 0.71 0.70 0.67 0.68 0.70 0.70 0.59 0.46 0.39 0.27 0.40 0.54 0.52 0.53 0.54 0.53 0.48 0.44 0.42 0.41 0.40 0.37 0.35 0.35 0.37 0.36 0.34 0.33 0.33 0.36 0.33 0.29 0.31 0.27 0.29 0.28 0.25 0.29 0.28 0.27 0.25 0.25 0.24 0.23 0.23 0.23 0.26 0.25 0.26 0.24 0.24 0.24 0.27 0.25 0.19 0.23 0.26 0.29 0.29 0.28 0.29 0.29 0.29 0.30 0.31 0.31 0.32 0.32
0.68 0.68 0.67 0.64 0.61 0.58 0.57 0.55 0.54 0.52 0.51 0.50 0.51 0.53 0.55 0.57 0.58 0.62 0.64 0.69 0.71 0.69 0.66 0.70 0.71 0.66 0.50 0.46 0.33 0.29 0.52 0.51 0.53 0.53 0.52 0.53 0.48 0.43 0.41 0.42 0.42 0.38 0.37 0.36 0.37 0.40 0.40 0.40 0.40 0.39 0.34 0.29 0.31 0.30 0.30 0.30 0.31 0.29 0.28 0.26 0.26 0.26 0.24 0.25 0.24 0.24 0.25 0.22 0.26 0.25 0.23 0.23 0.24 0.24 0.20 0.22 0.26 0.28 0.26 0.26 0.27 0.28 0.29 0.29 0.30 0.30 0.32 0.32
0.69 0.69 0.67 0.64 0.60 0.58 0.57 0.55 0.54 0.52 0.51 0.51 0.54 0.56 0.56 0.58 0.59 0.61 0.65 0.69 0.72 0.68 0.67 0.71 0.70 0.63 0.52 0.43 0.35 0.36 0.53 0.52 0.54 0.53 0.52 0.51 0.46 0.45 0.46 0.45 0.43 0.39 0.35 0.32 0.35 0.39 0.42 0.42 0.42 0.37 0.28 0.37 0.28 0.32 0.31 0.34 0.32 0.29 0.27 0.22 0.23 0.24 0.23 0.23 0.22 0.24 0.25 0.22 0.26 0.25 0.21 0.19 0.20 0.18 0.21 0.25 0.26 0.27 0.26 0.25 0.26 0.27 0.28 0.29 0.29 0.29 0.30 0.32
0.71 0.70 0.67 0.63 0.60 0.58 0.56 0.55 0.53 0.52 0.52 0.54 0.57 0.58 0.58 0.60 0.61 0.61 0.66 0.71 0.73 0.67 0.71 0.72 0.68 0.63 0.49 0.36 0.40 0.51 0.56 0.55 0.52 0.53 0.52 0.53 0.50 0.51 0.49 0.47 0.44 0.42 0.38 0.34 0.34 0.40 0.43 0.42 0.39 0.32 0.36 0.33 0.31 0.27 0.33 0.35 0.31 0.29 0.27 0.23 0.21 0.22 0.20 0.23 0.25 0.25 0.23 0.25 0.25 0.24 0.12 0.12 0.17 0.20 0.23 0.25 0.25 0.26 0.25 0.25 0.26 0.26 0.27 0.28 0.28 0.28 0.29 0.31
0.71 0.69 0.66 0.62 0.59 0.57 0.55 0.53 0.52 0.53 0.55 0.59 0.61 0.60 0.59 0.60 0.61 0.63 0.67 0.71 0.72 0.70 0.75 0.73 0.64 0.57 0.46 0.37 0.48 0.53 0.54 0.55 0.54 0.52 0.51 0.53 0.48 0.46 0.47 0.47 0.46 0.44 0.45 0.40 0.42 0.45 0.44 0.43 0.39 0.35 0.39 0.33 0.29 0.38 0.32 0.31 0.31 0.23 0.25 0.25 0.20 0.17 0.16 0.22 0.23 0.23 0.21 0.25 0.25 0.24 0.13 0.12 0.15 0.19 0.24 0.26 0.27 0.26 0.24 0.24 0.25 0.26 0.27 0.28 0.28 0.28 0.29 0.31
0.70 0.68 0.64 0.61 0.58 0.56 0.53 0.52 0.52 0.55 0.61 0.64 0.63 0.60 0.59 0.57 0.61 0.63 0.69 0.72 0.71 0.73 0.77 0.69 0.62 0.52 0.40 0.40 0.53 0.57 0.59 0.56 0.52 0.51 0.54 0.49 0.45 0.43 0.43 0.45 0.41 0.43 0.43 0.43 0.44 0.47 0.46 0.44 0.39 0.33 0.30 0.37 0.35 0.31 0.27 0.26 0.26 0.26 0.19 0.17 0.20 0.18 0.17 0.20 0.24 0.23 0.19 0.24 0.26 0.22 0.14 0.14 0.17 0.18 0.23 0.27 0.28 0.27 0.24 0.24 0.24 0.25 0.26 0.27 0.28 0.29 0.30 0.31
0.70 0.67 0.63 0.59 0.56 0.54 0.52 0.51 0.54 0.60 0.66 0.66 0.63 0.59 0.57 0.55 0.63 0.67 0.70 0.72 0.73 0.75 0.77 0.61 0.54 0.50 0.41 0.36 0.44 0.59 0.54 0.47 0.47 0.56 0.57 0.53 0.48 0.42 0.46 0.42 0.42 0.42 0.42 0.43 0.48 0.47 0.44 0.41 0.33 0.32 0.33 0.33 0.29 0.26 0.24 0.21 0.22 0.24 0.20 0.17 0.17 0.18 0.17 0.18 0.21 0.23 0.24 0.24 0.25 0.24 0.17 0.18 0.16 0.19 0.22 0.27 0.27 0.27 0.24 0.22 0.22 0.23 0.25 0.26 0.28 0.29 0.31 0.31
0.71 0.67 0.63 0.58 0.55 0.54 0.51 0.53 0.57 0.66 0.69 0.66 0.61 0.58 0.57 0.56 0.69 0.70 0.74 0.68 0.73 0.77 0.64 0.51 0.55 0.55 0.36 0.49 0.57 0.45 0.42 0.50 0.60 0.57 0.55 0.55 0.51 0.47 0.43 0.38 0.36 0.37 0.39 0.43 0.44 0.42 0.42 0.36 0.36 0.33 0.33 0.28 0.29 0.27 0.20 0.17 0.18 0.19 0.22 0.18 0.19 0.17 0.18 0.16 0.19 0.22 0.24 0.25 0.22 0.25 0.21 0.20 0.21 0.22 0.23 0.24 0.25 0.24 0.23 0.22 0.22 0.23 0.24 0.27 0.29 0.30 0.31 0.31
0.71 0.67 0.62 0.57 0.54 0.53 0.52 0.55 0.62 0.70 0.71 0.64 0.58 0.57 0.55 0.57 0.71 0.72 0.73 0.66 0.70 0.68 0.61 0.62 0.56 0.47 0.40 0.49 0.37 0.40 0.50 0.50 0.54 0.55 0.54 0.53 0.53 0.47 0.42 0.36 0.38 0.36 0.36 0.35 0.41 0.35 0.38 0.31 0.33 0.24 0.26 0.27 0.26 0.24 0.19 0.16 0.18 0.17 0.17 0.17 0.17 0.19 0.20 0.19 0.18 0.20 0.24 0.25 0.24 0.24 0.21 0.19 0.21 0.22 0.22 0.22 0.23 0.23 0.22 0.22 0.22 0.22 0.25 0.27 0.28 0.30 0.31 0.32
0.70 0.67 0.62 0.57 0.54 0.52 0.53 0.60 0.66 0.74 0.71 0.62 0.58 0.57 0.59 0.58 0.66 0.69 0.61 0.60 0.53 0.44 0.39 0.40 0.43 0.34 0.29 0.40 0.50 0.50 0.50 0.54 0.58 0.54 0.48 0.47 0.49 0.46 0.43 0.43 0.38 0.32 0.30 0.29 0.30 0.33 0.34 0.29 0.28 0.23 0.21 0.23 0.24 0.24 0.23 0.23 0.23 0.20 0.20 0.19 0.18 0.17 0.16 0.18 0.21 0.25 0.26 0.22 0.22 0.22 0.20 0.19 0.19 0.19 0.20 0.21 0.21 0.21 0.21 0.21 0.21 0.24 0.27 0.28 0.29 0.30 0.31 0.32
0.70 0.66 0.61 0.57 0.54 0.53 0.55 0.65 0.73 0.77 0.70 0.60 0.55 0.49 0.49 0.49 0.47 0.45 0.55 0.58 0.52 0.45 0.44 0.47 0.51 0.50 0.49 0.49 0.46 0.54 0.60 0.60 0.46 0.49 0.50 0.48 0.45 0.38 0.37 0.35 0.32 0.33 0.29 0.26 0.30 0.31 0.34 0.23 0.19 0.21 0.23 0.25 0.27 0.27 0.27 0.27 0.26 0.25 0.22 0.20 0.18 0.19 0.18 0.20 0.22 0.25 0.28 0.24 0.21 0.23 0.22 0.20 0.19 0.19 0.20 0.20 0.20 0.19 0.19 0.18 0.20 0.27 0.28 0.28 0.29 0.29 0.30 0.30
0.69 0.65 0.60 0.57 0.55 0.53 0.59 0.69 0.79 0.78 0.69 0.61 0.55 0.46 0.41 0.41 0.37 0.35 0.44 0.52 0.60 0.58 0.54 0.54 0.53 0.49 0.45 0.52 0.55 0.52 0.45 0.45 0.49 0.46 0.45 0.49 0.44 0.35 0.31 0.31 0.27 0.25 0.28 0.31 0.29 0.36 0.33 0.21 0.19 0.24 0.27 0.27 0.27 0.28 0.28 0.27 0.27 0.25 0.22 0.19 0.18 0.19 0.18 0.21 0.23 0.25 0.28 0.24 0.21 0.24 0.23 0.20 0.19 0.19 0.19 0.20 0.19 0.17 0.18 0.20 0.23 0.26 0.26 0.29 0.29 0.29 0.29 0.30
0.68 0.63 0.59 0.57 0.56 0.54 0.61 0.75 0.81 0.76 0.69 0.65 0.53 0.51 0.55 0.54 0.59 0.62 0.57 0.43 0.53 0.61 0.58 0.58 0.61 0.51 0.57 0.56 0.58 0.58 0.52 0.42 0.42 0.44 0.46 0.44 0.37 0.28 0.29 0.28 0.26 0.24 0.29 0.32 0.32 0.28 0.24 0.18 0.21 0.26 0.30 0.29 0.28 0.28 0.28 0.27 0.25 0.25 0.22 0.21 0.19 0.19 0.23 0.24 0.25 0.26 0.27 0.26 0.22 0.26 0.22 0.19 0.17 0.17 0.18 0.18 0.18 0.19 0.21 0.23 0.29 0.25 0.26 0.29 0.29 0.29 0.29 0.29
0.68 0.63 0.59 0.59 0.57 0.55 0.64 0.80 0.82 0.75 0.64 0.58 0.54 0.56 0.59 0.71 0.76 0.78 0.70 0.57 0.51 0.61 0.57 0.57 0.51 0.50 0.50 0.58 0.57 0.60 0.44 0.39 0.36 0.41 0.39 0.40 0.32 0.30 0.29 0.26 0.26 0.28 0.31 0.31 0.25 0.23 0.20 0.19 0.23 0.29 0.31 0.26 0.25 0.27 0.27 0.27 0.26 0.24 0.22 0.20 0.18 0.22 0.23 0.20 0.22 0.24 0.25 0.25 0.24 0.26 0.22 0.17 0.16 0.16 0.17 0.19 0.20 0.21 0.22 0.24 0.29 0.27 0.27 0.30 0.30 0.30 0.29 0.28
0.68 0.64 0.61 0.60 0.58 0.54 0.68 0.78 0.86 0.73 0.68 0.68 0.57 0.59 0.76 0.82 0.81 0.74 0.63 0.46 0.43 0.49 0.53 0.58 0.55 0.52 0.49 0.47 0.58 0.52 0.43 0.43 0.42 0.35 0.43 0.38 0.31 0.34 0.30 0.30 0.28 0.30 0.28 0.29 0.27 0.22 0.20 0.22 0.30 0.31 0.29 0.25 0.23 0.25 0.24 0.24 0.22 0.24 0.23 0.22 0.23 0.24 0.24 0.24 0.23 0.26 0.25 0.22 0.24 0.25 0.20 0.18 0.16 0.14 0.14 0.16 0.18 0.19 0.19 0.20 0.29 0.31 0.34 0.36 0.36 0.33 0.32 0.29
0.69 0.66 0.63 0.61 0.59 0.54 0.68 0.79 0.68 0.69 0.76 0.69 0.61 0.73 0.78 0.79 0.81 0.78 0.61 0.48 0.45 0.46 0.61 0.60 0.60 0.56 0.54 0.67 0.61 0.46 0.45 0.47 0.41 0.40 0.43 0.41 0.35 0.32 0.29 0.34 0.32 0.27 0.27 0.28 0.25 0.23 0.21 0.29 0.33 0.28 0.25 0.25 0.25 0.23 0.23 0.24 0.21 0.22 0.23 0.25 0.27 0.27 0.26 0.26 0.27 0.25 0.20 0.16 0.17 0.20 0.13 0.12 0.13 0.12 0.13 0.15 0.16 0.17 0.20 0.22 0.29 0.31 0.36 0.35 0.33 0.31 0.31 0.32
0.70 0.67 0.64 0.62 0.61 0.56 0.70 0.61 0.64 0.75 0.67 0.58 0.64 0.75 0.78 0.79 0.84 0.84 0.60 0.40 0.31 0.42 0.51 0.41 0.62 0.47 0.65 0.54 0.54 0.48 0.49 0.39 0.42 0.40 0.43 0.43 0.43 0.34 0.33 0.30 0.32 0.24 0.26 0.25 0.24 0.23 0.25 0.32 0.29 0.24 0.24 0.25 0.26 0.24 0.26 0.27 0.22 0.21 0.21 0.29 0.29 0.28 0.28 0.26 0.25 0.23 0.16 0.13 0.13 0.17 0.14 0.12 0.15 0.13 0.14 0.17 0.18 0.18 0.21 0.25 0.30 0.32 0.34 0.33 0.31 0.29 0.28 0.28
0.70 0.68 0.66 0.63 0.63 0.63 0.52 0.48 0.72 0.71 0.53 0.59 0.75 0.78 0.79 0.78 0.88 0.84 0.50 0.33 0.28 0.43 0.40 0.52 0.51 0.53 0.63 0.55 0.52 0.49 0.34 0.33 0.42 0.44 0.40 0.40 0.34 0.40 0.28 0.28 0.29 0.29 0.28 0.28 0.23 0.21 0.28 0.27 0.25 0.25 0.25 0.25 0.24 0.21 0.27 0.28 0.24 0.20 0.30 0.30 0.28 0.27 0.26 0.25 0.24 0.22 0.17 0.17 0.17 0.20 0.19 0.16 0.14 0.13 0.17 0.21 0.19 0.19 0.22 0.27 0.30 0.31 0.32 0.32 0.29 0.28 0.27 0.27
0.70 0.69 0.67 0.64 0.66 0.69 0.58 0.66 0.60 0.58 0.58 0.69 0.79 0.78 0.78 0.80 0.87 0.84 0.43 0.25 0.25 0.48 0.41 0.48 0.52 0.69 0.59 0.56 0.55 0.45 0.42 0.44 0.32 0.38 0.38 0.38 0.37 0.32 0.29 0.26 0.23 0.23 0.24 0.24 0.18 0.24 0.26 0.23 0.25 0.24 0.24 0.23 0.21 0.26 0.29 0.30 0.25 0.26 0.30 0.31 0.28 0.28 0.27 0.25 0.21 0.17 0.17 0.18 0.14 0.17 0.20 0.17 0.15 0.14 0.20 0.21 0.18 0.19 0.22 0.28 0.28 0.29 0.32 0.31 0.29 0.29 0.29 0.29
0.68 0.68 0.68 0.64 0.70 0.74 0.72 0.62 0.62 0.58 0.73 0.77 0.80 0.76 0.75 0.83 0.78 0.50 0.38 0.24 0.37 0.39 0.59 0.44 0.69 0.60 0.56 0.57 0.52 0.51 0.46 0.44 0.32 0.36 0.38 0.38 0.38 0.33 0.26 0.25 0.25 0.24 0.26 0.26 0.22 0.25 0.27 0.28 0.28 0.26 0.23 0.21 0.26 0.30 0.32 0.32 0.27 0.31 0.33 0.33 0.30 0.27 0.22 0.18 0.18 0.20 0.18 0.17 0.13 0.15 0.18 0.16 0.14 0.13 0.17 0.20 0.18 0.23 0.26 0.28 0.28 0.26 0.29 0.28 0.27 0.27 0.27 0.28
0.67 0.67 0.69 0.66 0.67 0.68 0.63 0.75 0.65 0.75 0.78 0.78 0.76 0.74 0.78 0.76 0.57 0.39 0.32 0.23 0.40 0.34 0.46 0.52 0.50 0.47 0.56 0.48 0.47 0.48 0.41 0.40 0.41 0.39 0.37 0.33 0.35 0.35 0.30 0.32 0.28 0.27 0.26 0.29 0.28 0.27 0.30 0.34 0.30 0.25 0.24 0.26 0.30 0.33 0.34 0.34 0.34 0.37 0.33 0.25 0.20 0.17 0.18 0.22 0.22 0.20 0.19 0.14 0.13 0.16 0.19 0.18 0.12 0.12 0.14 0.17 0.20 0.25 0.22 0.20 0.21 0.25 0.26 0.25 0.26 0.27 0.28 0.28
0.68 0.68 0.69 0.68 0.56 0.63 0.63 0.54 0.69 0.75 0.77 0.76 0.73 0.75 0.71 0.55 0.41 0.35 0.25 0.36 0.43 0.41 0.50 0.47 0.47 0.58 0.50 0.45 0.41 0.44 0.42 0.40 0.38 0.37 0.33 0.36 0.31 0.31 0.31 0.28 0.37 0.29 0.27 0.27 0.27 0.29 0.29 0.26 0.25 0.29 0.35 0.34 0.35 0.31 0.35 0.36 0.35 0.29 0.22 0.19 0.19 0.19 0.24 0.19 0.15 0.20 0.14 0.11 0.13 0.14 0.15 0.14 0.08 0.09 0.13 0.15 0.18 0.22 0.22 0.22 0.24 0.25 0.26 0.26 0.27 0.27 0.26 0.26
0.69 0.70 0.70 0.65 0.64 0.65 0.49 0.48 0.65 0.78 0.77 0.76 0.75 0.63 0.52 0.39 0.41 0.32 0.34 0.52 0.36 0.38 0.43 0.45 0.53 0.52 0.49 0.49 0.43 0.41 0.39 0.39 0.39 0.36 0.33 0.33 0.30 0.27 0.30 0.26 0.29 0.22 0.22 0.25 0.23 0.28 0.23 0.23 0.27 0.33 0.39 0.36 0.31 0.26 0.27 0.29 0.27 0.23 0.22 0.22 0.19 0.16 0.14 0.10 0.13 0.12 0.12 0.10 0.12 0.13 0.12 0.10 0.09 0.11 0.16 0.22 0.29 0.27 0.26 0.23 0.22 0.21 0.22 0.24 0.24 0.25 0.25 0.25
0.69 0.70 0.71 0.67 0.65 0.59 0.63 0.70 0.77 0.76 0.80 0.78 0.68 0.54 0.44 0.38 0.29 0.41 0.41 0.46 0.43 0.51 0.47 0.57 0.51 0.51 0.49 0.45 0.40 0.42 0.44 0.35 0.39 0.36 0.37 0.34 0.29 0.30 0.33 0.32 0.35 0.30 0.22 0.26 0.24 0.21 0.20 0.25 0.27 0.32 0.34 0.35 0.31 0.21 0.22 0.19 0.22 0.21 0.19 0.22 0.16 0.11 0.12 0.12 0.13 0.13 0.11 0.11 0.10 0.09 0.13 0.11 0.13 0.16 0.26 0.22 0.23 0.20 0.18 0.18 0.19 0.18 0.18 0.19 0.20 0.21 0.21 0.23
0.69 0.69 0.63 0.65 0.65 0.66 0.69 0.74 0.76 0.80 0.77 0.72 0.57 0.48 0.42 0.36 0.36 0.51 0.48 0.50 0.51 0.59 0.58 0.51 0.51 0.50 0.47 0.40 0.40 0.41 0.34 0.39 0.38 0.36 0.36 0.30 0.28 0.24 0.28 0.33 0.37 0.33 0.32 0.28 0.20 0.20 0.15 0.15 0.25 0.26 0.23 0.34 0.30 0.28 0.25 0.22 0.20 0.17 0.26 0.20 0.15 0.16 0.15 0.10 0.11 0.08 0.08 0.09 0.10 0.11 0.12 0.09 0.09 0.11 0.19 0.18 0.17 0.15 0.14 0.14 0.15 0.16 0.17 0.19 0.20 0.20 0.19 0.19
0.70 0.68 0.66 0.65 0.66 0.69 0.72 0.77 0.82 0.87 0.78 0.63 0.48 0.43 0.38 0.38 0.46 0.47 0.47 0.50 0.50 0.51 0.50 0.57 0.49 0.45 0.41 0.41 0.42 0.42 0.39 0.35 0.38 0.35 0.32 0.28 0.24 0.25 0.26 0.30 0.37 0.38 0.35 0.23 0.22 0.21 0.18 0.18 0.23 0.32 0.31 0.33 0.27 0.29 0.28 0.22 0.15 0.20 0.21 0.24 0.19 0.15 0.15 0.09 0.09 0.10 0.10 0.10 0.10 0.11 0.11 0.10 0.09 0.12 0.13 0.13 0.12 0.14 0.16 0.16 0.17 0.16 0.14 0.14 0.12 0.11 0.11 0.12
0.66 0.64 0.66 0.60 0.63 0.73 0.77 0.83 0.89 0.87 0.74 0.54 0.46 0.42 0.40 0.48 0.47 0.53 0.51 0.56 0.57 0.52 0.52 0.52 0.47 0.41 0.38 0.38 0.42 0.40 0.43 0.37 0.36 0.33 0.29 0.29 0.28 0.26 0.34 0.36 0.36 0.38 0.31 0.23 0.25 0.19 0.21 0.17 0.31 0.29 0.31 0.30 0.27 0.26 0.21 0.17 0.11 0.16 0.18 0.13 0.15 0.16 0.13 0.12 0.12 0.13 0.13 0.14 0.11 0.13 0.10 0.09 0.09 0.09 0.10 0.15 0.15 0.13 0.11 0.10 0.09 0.09 0.11 0.12 0.12 0.13 0.14 0.15
0.59 0.64 0.54 0.62 0.65 0.76 0.81 0.88 0.89 0.81 0.68 0.54 0.46 0.42 0.50 0.52 0.57 0.58 0.59 0.55 0.55 0.57 0.50 0.41 0.40 0.40 0.37 0.35 0.37 0.39 0.38 0.37 0.34 0.32 0.26 0.29 0.23 0.33 0.34 0.37 0.39 0.37 0.36 0.30 0.23 0.34 0.21 0.19 0.25 0.25 0.21 0.33 0.30 0.21 0.18 0.22 0.24 0.18 0.12 0.12 0.15 0.16 0.18 0.14 0.11 0.11 0.11 0.09 0.08 0.09 0.07 0.06 0.06 0.06 0.12 0.10 0.08 0.07 0.09 0.12 0.12 0.13 0.13 0.13 0.14 0.15 0.15 0.17
0.57 0.57 0.57 0.59 0.72 0.84 0.86 0.87 0.87 0.78 0.61 0.52 0.46 0.50 0.55 0.53 0.58 0.57 0.64 0.61 0.57 0.55 0.47 0.42 0.41 0.42 0.36 0.36 0.34 0.37 0.38 0.33 0.31 0.31 0.25 0.26 0.23 0.40 0.36 0.34 0.37 0.34 0.33 0.35 0.25 0.26 0.27 0.18 0.18 0.25 0.23 0.25 0.22 0.18 0.23 0.26 0.22 0.14 0.12 0.15 0.13 0.10 0.09 0.14 0.12 0.08 0.07 0.06 0.06 0.07 0.07 0.06 0.06 0.06 0.08 0.07 0.08 0.10 0.12 0.12 0.11 0.11 0.13 0.14 0.15 0.15 0.16 0.18
0.55 0.51 0.46 0.64 0.85 0.89 0.86 0.94 0.84 0.72 0.57 0.48 0.47 0.49 0.53 0.56 0.63 0.60 0.64 0.63 0.60 0.54 0.45 0.45 0.41 0.40 0.40 0.37 0.37 0.38 0.37 0.31 0.32 0.28 0.24 0.25 0.26 0.33 0.31 0.33 0.31 0.32 0.33 0.32 0.27 0.27 0.26 0.18 0.17 0.23 0.21 0.19 0.16 0.16 0.13 0.15 0.17 0.17 0.19 0.15 0.17 0.15 0.15 0.11 0.10 0.09 0.10 0.07 0.06 0.06 0.07 0.05 0.07 0.07 0.08 0.10 0.12 0.12 0.12 0.10 0.11 0.12 0.14 0.15 0.15 0.16 0.17 0.18
0.48 0.43 0.43 0.76 0.88 0.92 0.96 0.91 0.76 0.64 0.54 0.47 0.51 0.53 0.61 0.58 0.61 0.67 0.67 0.64 0.56 0.52 0.47 0.46 0.46 0.40 0.41 0.40 0.40 0.35 0.37 0.34 0.31 0.29 0.25 0.25 0.26 0.36 0.30 0.34 0.29 0.30 0.31 0.31 0.27 0.27 0.21 0.25 0.15 0.17 0.18 0.16 0.14 0.17 0.14 0.14 0.12 0.13 0.14 0.12 0.14 0.13 0.14 0.13 0.11 0.09 0.08 0.07 0.07 0.07 0.06 0.06 0.08 0.12 0.12 0.12 0.12 0.11 0.10 0.12 0.12 0.13 0.14 0.14 0.15 0.17 0.18 0.19
0.53 0.44 0.49 0.77 0.91 1.00 0.97 0.80 0.62 0.56 0.54 0.57 0.58 0.58 0.61 0.58 0.66 0.67 0.67 0.68 0.61 0.63 0.53 0.49 0.47 0.42 0.42 0.40 0.38 0.40 0.35 0.34 0.32 0.27 0.27 0.26 0.28 0.24 0.34 0.32 0.31 0.27 0.29 0.28 0.25 0.23 0.18 0.19 0.14 0.14 0.15 0.14 0.14 0.18 0.14 0.14 0.14 0.14 0.13 0.12 0.13 0.11 0.11 0.09 0.07 0.10 0.08 0.07 0.06 0.07 0.06 0.08 0.11 0.15 0.13 0.12 0.11 0.11 0.13 0.13 0.11 0.12 0.13 0.14 0.16 0.17 0.19 0.20
0.44 0.40 0.47 0.81 0.95 0.96 0.79 0.59 0.58 0.63 0.58 0.54 0.56 0.61 0.59 0.73 0.64 0.64 0.65 0.65 0.62 0.58 0.63 0.56 0.53 0.49 0.46 0.43 0.43 0.41 0.36 0.32 0.31 0.28 0.29 0.26 0.31 0.29 0.30 0.33 0.30 0.29 0.25 0.22 0.21 0.21 0.20 0.18 0.16 0.14 0.14 0.14 0.15 0.14 0.15 0.15 0.17 0.14 0.14 0.13 0.14 0.14 0.13 0.10 0.07 0.07 0.09 0.09 0.11 0.10 0.08 0.07 0.12 0.13 0.13 0.12 0.12 0.13 0.13 0.11 0.11 0.12 0.14 0.15 0.16 0.18 0.19 0.20
0.45 0.46 0.83 0.89 1.00 0.92 0.70 0.57 0.61 0.60 0.59 0.63 0.70 0.66 0.69 0.66 0.64 0.66 0.61 0.63 0.59 0.61 0.58 0.55 0.52 0.49 0.48 0.46 0.42 0.38 0.36 0.30 0.30 0.27 0.28 0.30 0.30 0.32 0.32 0.32 0.30 0.27 0.26 0.22 0.21 0.23 0.22 0.15 0.15 0.15 0.16 0.14 0.13 0.14 0.15 0.16 0.14 0.13 0.13 0.15 0.14 0.12 0.12 0.10 0.10 0.11 0.10 0.10 0.09 0.08 0.07 0.07 0.11 0.12 0.11 0.11 0.13 0.13 0.11 0.10 0.10 0.12 0.14 0.15 0.16 0.17 0.18 0.18
0.52 0.55 0.63 0.87 0.97 0.89 0.63 0.50 0.52 0.58 0.61 0.65 0.65 0.63 0.71 0.66 0.63 0.60 0.59 0.60 0.55 0.53 0.51 0.50 0.50 0.49 0.43 0.44 0.39 0.33 0.35 0.26 0.30 0.30 0.29 0.34 0.30 0.35 0.32 0.30 0.29 0.25 0.23 0.20 0.17 0.20 0.16 0.15 0.16 0.13 0.12 0.11 0.12 0.13 0.13 0.14 0.14 0.14 0.14 0.15 0.14 0.13 0.11 0.11 0.11 0.11 0.09 0.09 0.08 0.08 0.05 0.06 0.09 0.11 0.12 0.12 0.12 0.10 0.09 0.10 0.11 0.12 0.13 0.14 0.16 0.16 0.17 0.18
0.54 0.61 0.63 0.73 0.84 0.79 0.58 0.59 0.57 0.57 0.59 0.59 0.60 0.59 0.61 0.61 0.64 0.63 0.60 0.56 0.58 0.54 0.51 0.46 0.47 0.45 0.41 0.41 0.37 0.36 0.35 0.28 0.25 0.32 0.30 0.30 0.29 0.34 0.33 0.30 0.29 0.25 0.25 0.24 0.23 0.25 0.17 0.17 0.15 0.12 0.10 0.09 0.09 0.09 0.09 0.10 0.11 0.13 0.14 0.14 0.11 0.10 0.09 0.10 0.08 0.09 0.07 0.08 0.09 0.08 0.07 0.08 0.10 0.11 0.10 0.10 0.09 0.09 0.10 0.11 0.12 0.13 0.14 0.15 0.16 0.17 0.17 0.18
0.50 0.46 0.61 0.60 0.71 0.74 0.68 0.70 0.65 0.61 0.59 0.59 0.57 0.58 0.60 0.57 0.62 0.64 0.62 0.58 0.58 0.55 0.53 0.50 0.47 0.45 0.40 0.37 0.34 0.32 0.31 0.34 0.28 0.28 0.29 0.28 0.29 0.30 0.31 0.30 0.27 0.24 0.25 0.26 0.24 0.23 0.19 0.19 0.17 0.14 0.12 0.11 0.11 0.12 0.13 0.14 0.13 0.11 0.13 0.13 0.10 0.10 0.10 0.10 0.11 0.09 0.07 0.08 0.08 0.08 0.08 0.08 0.08 0.08 0.08 0.08 0.09 0.09 0.10 0.11 0.13 0.14 0.15 0.16 0.16 0.17 0.17 0.17
0.59 0.50 0.52 0.52 0.67 0.66 0.64 0.68 0.65 0.64 0.58 0.62 0.54 0.59 0.57 0.58 0.58 0.58 0.61 0.52 0.55 0.53 0.50 0.48 0.45 0.40 0.38 0.37 0.34 0.33 0.33 0.31 0.33 0.31 0.29 0.27 0.28 0.28 0.29 0.28 0.27 0.27 0.27 0.25 0.26 0.23 0.19 0.17 0.16 0.15 0.15 0.14 0.15 0.14 0.14 0.14 0.13 0.13 0.14 0.11 0.10 0.09 0.09 0.09 0.08 0.07 0.09 0.09 0.06 0.08 0.08 0.07 0.07 0.08 0.08 0.08 0.09 0.11 0.11 0.13 0.14 0.14 0.15 0.16 0.17 0.17 0.17 0.17
0.53 0.57 0.59 0.63 0.58 0.56 0.60 0.61 0.66 0.64 0.64 0.63 0.58 0.61 0.57 0.56 0.56 0.52 0.57 0.56 0.56 0.54 0.48 0.46 0.45 0.43 0.40 0.37 0.35 0.30 0.31 0.30 0.29 0.26 0.28 0.27 0.26 0.27 0.25 0.27 0.25 0.29 0.28 0.25 0.26 0.21 0.18 0.16 0.16 0.16 0.15 0.16 0.17 0.15 0.15 0.14 0.14 0.14 0.13 0.11 0.09 0.09 0.09 0.08 0.08 0.09 0.09 0.08 0.06 0.06 0.07 0.07 0.08 0.08 0.09 0.10 0.11 0.12 0.13 0.14 0.15 0.16 0.17 0.17 0.17 0.17 0.17 0.18
0.64 0.63 0.62 0.70 0.60 0.64 0.65 0.67 0.68 0.66 0.64 0.64 0.60 0.59 0.57 0.56 0.53 0.54 0.51 0.51 0.52 0.50 0.49 0.42 0.42 0.43 0.41 0.39 0.35 0.31 0.31 0.26 0.25 0.27 0.25 0.25 0.24 0.24 0.22 0.23 0.27 0.28 0.26 0.24 0.23 0.21 0.19 0.17 0.18 0.18 0.15 0.15 0.15 0.14 0.14 0.14 0.14 0.14 0.12 0.10 0.10 0.09 0.09 0.09 0.09 0.09 0.08 0.08 0.07 0.07 0.07 0.07 0.08 0.09 0.10 0.11 0.12 0.13 0.14 0.16 0.16 0.17 0.18 0.18 0.18 0.19 0.19 0.20
0.63 0.61 0.62 0.70 0.68 0.67 0.68 0.68 0.68 0.67 0.62 0.65 0.57 0.58 0.59 0.56 0.54 0.55 0.55 0.52 0.47 0.48 0.51 0.44 0.43 0.42 0.40 0.38 0.35 0.30 0.29 0.27 0.25 0.24 0.27 0.25 0.24 0.25 0.22 0.20 0.20 0.25 0.26 0.21 0.20 0.20 0.20 0.15 0.18 0.16 0.14 0.13 0.13 0.14 0.14 0.14 0.14 0.12 0.10 0.09 0.10 0.10 0.09 0.09 0.09 0.07 0.07 0.07 0.07 0.07 0.07 0.08 0.09 0.10 0.11 0.12 0.13 0.14 0.15 0.16 0.17 0.18 0.19 0.20 0.20 0.20 0.21 0.21
0.73 0.71 0.71 0.65 0.61 0.65 0.69 0.69 0.67 0.65 0.61 0.62 0.58 0.59 0.60 0.57 0.55 0.56 0.53 0.56 0.50 0.47 0.47 0.44 0.43 0.41 0.40 0.37 0.34 0.30 0.31 0.29 0.28 0.27 0.28 0.27 0.23 0.26 0.21 0.20 0.25 0.21 0.21 0.20 0.21 0.19 0.19 0.16 0.17 0.15 0.12 0.11 0.11 0.11 0.12 0.13 0.13 0.10 0.08 0.08 0.09 0.08 0.07 0.07 0.07 0.08 0.08 0.07 0.07 0.07 0.07 0.07 0.09 0.11 0.13 0.14 0.14 0.14 0.15 0.17 0.19 0.20 0.21 0.21 0.21 0.21 0.22 0.23
0.77 0.80 0.78 0.72 0.63 0.69 0.66 0.68 0.67 0.63 0.56 0.61 0.61 0.60 0.58 0.58 0.58 0.56 0.51 0.55 0.54 0.52 0.49 0.46 0.43 0.39 0.36 0.34 0.30 0.30 0.31 0.30 0.29 0.30 0.31 0.30 0.27 0.24 0.25 0.24 0.24 0.21 0.20 0.20 0.21 0.18 0.17 0.16 0.14 0.13 0.12 0.10 0.11 0.12 0.12 0.12 0.10 0.06 0.06 0.06 0.08 0.08 0.08 0.08 0.08 0.08 0.09 0.08 0.07 0.07 0.07 0.10 0.11 0.13 0.13 0.14 0.15 0.15 0.16 0.18 0.20 0.21 0.22 0.22 0.22 0.23 0.24 0.25
Wind_Speed
12 13 14 15 16 17 19 20 21 22 23 24 25 26 27 27 28 28 29 29 30 29 29 29 29 28 27 27 27 24 21 18 17 16 14 14 15 14 14 14 15 16 16 16 16 16 15 16 17 18 17 16 17 18 18 18 18 18 17 18 19 18 19 19 18 19 21 22 22 22 21 20 23 22 23 23 23 24 23 23 23 23 24 24 25 26 26 26
12 13 14 15 16 18 19 20 22 23 24 25 25 26 27 27 28 29 29 30 30 30 30 29 29 28 27 27 27 24 20 17 17 16 15 16 15 14 14 14 15 16 16 16 16 15 15 16 17 17 17 16 17 18 18 18 18 17 17 18 19 18 19 19 19 20 21 24 24 24 23 22 23 23 23 24 24 24 23 25 24 24 25 25 25 25 25 25
13 14 15 16 17 18 20 21 22 23 24 25 26 26 27 28 29 29 30 30 30 30 30 30 29 28 28 27 27 25 19 16 17 17 16 17 15 14 14 15 16 16 16 15 14 14 14 15 16 17 17 17 17 18 18 18 18 17 17 19 19 19 21 21 21 22 23 25 26 26 25 24 25 24 23 24 26 25 23 25 25 24 26 26 26 25 25 25
13 14 15 16 18 19 20 22 22 23 25 25 26 27 27 28 29 29 30 30 31 31 31 31 30 30 29 28 27 24 18 16 17 17 16 16 14 14 14 15 16 16 15 14 14 13 13 14 16 17 17 17 18 18 18 19 19 18 18 19 20 20 22 23 23 25 25 26 26 27 26 26 27 25 23 24 27 26 24 26 25 25 28 28 28 26 25 26
14 15 16 17 18 20 21 22 23 24 25 26 27 27 28 29 29 29 30 31 31 31 32 32 32 30 30 28 25 22 17 15 16 16 15 14 14 14 15 15 16 15 14 14 14 14 14 15 16 17 17 17 18 18 18 19 19 19 19 20 21 22 24 25 25 26 26 26 26 27 28 28 28 26 25 25 26 26 26 28 27 28 30 30 29 28 27 28
14 15 16 17 19 20 21 22 23 24 25 26 27 27 28 29 30 30 30 31 32 32 32 32 32 30 30 26 23 20 16 14 15 14 14 14 14 15 15 15 15 15 14 14 14 15 15 16 16 16 17 17 18 18 20 21 20 21 21 22 23 23 24 27 27 27 27 27 28 28 28 30 29 29 28 26 27 29 29 30 30 31 32 31 30 29 28 29
15 16 17 18 19 20 22 23 24 25 26 27 27 28 29 30 30 30 31 32 32 32 33 32 31 30 28 24 21 19 15 13 14 13 14 14 14 15 15 15 15 15 15 15 15 15 15 16 17 16 17 18 18 19 21 22 22 21 23 24 25 24 25 28 29 29 29 28 30 30 30 31 30 30 29 28 29 31 32 31 32 33 33 31 30 29 29 29
15 16 17 19 20 21 22 23 25 26 26 27 28 28 29 30 30 30 31 32 33 33 33 32 31 30 27 22 19 18 16 14 13 13 14 14 14 15 15 15 15 15 15 16 16 15 16 17 18 18 18 19 19 21 22 23 23 22 24 26 27 27 28 29 30 30 31 30 31 31 30 31 32 30 30 30 32 33 32 32 32 33 33 31 31 31 30 31
16 17 18 19 20 22 23 24 25 26 27 27 28 29 29 30 30 31 32 33 33 33 33 32 30 29 25 21 19 17 16 14 13 13 14 14 15 15 15 15 16 16 16 16 17 16 17 18 19 20 20 21 21 22 22 24 25 24 25 28 28 30 32 31 31 31 32 31 29 29 30 32 32 31 30 30 32 34 33 33 33 33 33 32 32 33 33 33
17 18 19 20 21 23 24 25 26 27 27 28 29 29 30 30 31 32 32 33 34 33 33 31 30 27 23 21 20 17 16 15 14 14 15 16 15 15 15 16 17 17 17 17 18 17 18 19 20 21 21 22 22 23 23 23 25 26 28 30 30 32 32 30 31 32 32 30 28 29 31 33 31 28 28 29 31 33 34 33 34 34 34 34 34 35 34 34
17 18 19 21 22 23 25 25 26 27 28 29 29 30 31 31 32 32 33 34 34 34 33 30 28 25 22 21 19 16 16 15 15 15 16 16 16 16 16 17 17 17 18 18 18 18 19 19 21 22 22 23 23 24 24 25 27 28 29 31 31 31 31 30 29 30 30 30 29 31 33 33 30 27 28 32 33 34 35 35 35 35 35 35 36 36 35 35
18 19 20 21 23 24 25 26 27 28 29 30 30 31 32 32 32 33 34 35 34 34 32 29 27 23 21 21 18 16 16 15 15 15 16 16 15 16 16 16 17 18 18 18 19 19 19 20 21 22 23 24 25 25 25 26 28 28 28 29 30 30 30 29 28 28 30 31 32 35 36 33 29 29 30 33 34 35 36 36 36 36 36 36 36 36 35 35
19 20 21 22 24 25 26 27 28 29 30 30 31 32 32 32 33 33 34 35 34 33 30 27 26 22 21 21 18 17 16 15 15 16 17 16 16 16 16 17 18 19 19 19 20 20 20 21 21 23 24 24 26 27 27 28 28 28 28 28 30 31 29 28 29 30 31 32 33 35 38 36 31 31 32 33 34 36 38 38 37 37 36 36 36 36 35 34
20 21 22 23 24 26 27 28 29 30 30 31 31 32 33 33 33 34 35 34 34 32 28 26 25 22 20 19 17 17 16 15 16 17 18 17 17 17 17 18 19 20 20 19 20 20 22 22 22 24 24 25 26 28 29 28 28 28 28 28 29 31 30 30 31 31 31 32 32 33 37 39 36 34 33 33 35 37 39 40 39 38 37 37 36 36 36 35
21 22 23 24 25 26 28 29 30 30 31 32 32 33 33 34 34 34 34 34 34 31 27 26 25 22 20 18 17 17 16 15 16 18 18 17 17 18 19 20 20 21 21 20 21 22 23 23 23 24 25 26 27 28 29 28 28 28 28 30 29 30 33 33 31 29 30 33 33 32 36 40 39 37 35 34 37 38 40 42 42 40 38 37 37 37 37 36
22 23 24 25 26 27 28 30 30 31 32 32 33 34 34 34 34 34 34 34 33 30 27 26 25 21 19 17 17 17 16 15 18 19 19 18 18 19 20 20 21 22 22 22 22 23 24 24 24 25 25 26 26 27 28 28 28 28 28 31 31 32 34 34 31 28 29 33 33 32 35 40 40 41 41 39 39 39 40 42 43 42 40 38 38 38 38 38
23 24 25 26 27 28 29 30 31 32 33 33 34 34 34 35 35 34 34 34 32 29 26 25 24 20 18 17 17 17 16 17 19 19 19 19 19 20 20 20 22 23 23 23 23 24 25 25 25 26 26 26 26 27 28 29 30 30 29 30 32 32 33 34 33 31 30 33 35 34 36 41 42 42 44 43 41 41 42 43 44 42 40 39 39 39 39 39
23 24 25 26 27 29 30 31 32 32 33 34 35 34 34 35 34 33 33 34 32 28 26 25 23 19 18 18 17 17 18 19 20 19 20 20 21 21 20 21 23 23 24 24 24 25 26 26 26 26 26 26 26 26 27 28 30 31 31 32 33 33 33 34 34 34 35 36 36 36 39 43 44 43 43 44 44 43 43 43 43 41 40 39 39 40 40 39
24 25 26 27 28 29 31 31 32 33 34 34 35 34 34 35 33 32 33 34 31 27 26 25 23 19 18 18 17 19 19 19 19 19 21 22 22 22 21 22 23 23 24 24 25 26 26 27 27 27 27 27 27 26 26 28 29 30 32 32 33 35 36 35 34 34 36 39 38 37 41 46 47 46 44 46 46 44 44 44 42 40 39 39 40 40 39 38
25 26 27 28 29 30 31 31 32 33 34 34 34 33 33 34 33 32 34 33 29 26 26 24 21 19 18 17 18 20 20 19 18 19 22 23 23 23 22 24 24 24 24 24 26 26 25 27 27 27 27 27 27 26 26 27 28 30 31 32 33 34 37 37 36 36 34 38 40 39 42 47 48 48 46 46 47 45 44 44 42 40 39 39 39 39 39 38
25 26 27 28 29 30 31 31 32 32 33 33 33 33 32 33 32 33 34 33 30 28 26 22 19 18 18 17 19 20 20 20 19 20 23 24 24 23 24 25 24 24 25 25 26 26 26 27 27 27 26 28 27 25 26 27 28 30 31 33 34 33 36 38 37 38 35 37 42 40 43 49 49 49 47 45 46 45 43 43 41 38 38 39 39 40 40 39
26 27 28 29 30 31 31 31 31 32 33 33 33 32 31 32 33 33 33 33 32 30 25 22 19 18 18 17 19 21 20 20 20 22 24 25 25 24 25 25 24 25 26 26 26 28 28 27 28 28 27 28 28 26 26 28 29 30 31 33 35 34 37 39 38 39 37 37 42 42 43 49 51 51 48 45 44 44 43 41 38 37 38 39 40 41 42 42
27 27 28 29 30 31 31 31 31 31 32 32 32 32 33 34 34 34 32 32 33 30 25 22 19 18 19 18 19 21 21 20 21 24 26 26 26 25 24 25 25 26 27 26 27 29 29 29 28 27 27 29 30 29 28 29 30 30 31 33 36 37 37 39 40 42 41 41 42 42 43 47 51 51 47 45 44 44 43 39 36 37 38 39 41 41 42 43
28 28 29 30 30 31 31 31 31 31 32 32 32 33 34 35 35 34 33 31 31 29 24 21 18 19 20 20 21 22 21 20 22 25 26 26 26 25 25 25 26 27 27 27 27 29 30 30 28 27 28 29 30 32 30 31 32 31 31 33 36 38 37 39 41 42 45 47 42 39 42 45 49 53 49 46 46 45 44 39 37 39 39 40 41 41 42 42
28 29 30 30 31 32 31 30 31 32 33 33 33 34 35 35 36 34 32 31 30 28 23 19 19 20 21 22 24 24 22 22 23 25 27 26 26 26 26 26 26 28 29 28 29 30 30 29 28 29 30 30 31 33 31 30 33 34 33 33 35 37 38 40 42 42 45 48 44 39 42 45 50 55 51 48 48 47 45 40 38 40 40 40 40 41 42 42
29 30 30 31 31 32 31 30 31 32 33 33 34 36 36 36 36 33 31 30 28 25 21 19 20 21 22 24 25 25 23 24 25 27 27 28 27 27 28 27 27 28 29 29 30 30 30 30 29 30 32 32 32 33 31 29 32 35 34 33 35 36 39 41 42 43 42 47 49 43 41 44 49 55 53 49 50 49 45 40 40 41 41 41 42 42 44 44
30 31 31 31 31 32 31 31 32 33 33 34 35 36 36 36 35 32 31 28 25 23 21 21 21 22 24 25 26 25 25 27 28 28 28 30 29 29 29 29 29 29 28 29 31 30 30 32 32 31 32 33 33 33 31 29 31 34 35 35 37 38 40 42 43 43 43 48 51 44 40 41 47 55 51 46 49 49 45 41 41 42 42 43 43 44 45 45
31 31 31 31 31 31 31 31 33 33 34 35 36 36 36 35 33 31 28 26 24 23 22 22 23 24 25 26 26 26 27 29 29 29 30 30 30 29 29 29 29 30 29 28 31 32 31 32 33 33 34 33 33 33 31 30 32 35 37 37 39 40 42 44 43 44 44 46 48 45 41 39 45 54 49 44 47 46 42 41 41 43 44 44 44 45 46 46
32 32 32 32 31 31 31 32 33 33 35 36 35 35 34 33 31 29 26 24 25 25 24 24 24 25 26 27 28 27 28 29 29 30 31 29 30 30 30 29 29 31 30 28 31 33 31 32 33 33 35 33 32 32 31 31 33 37 39 39 41 42 43 44 42 42 41 42 44 46 41 37 46 55 48 43 44 42 41 42 43 45 45 45 47 48 48 47
32 32 32 32 32 32 33 33 33 34 35 35 34 34 33 32 30 28 26 26 27 27 26 25 25 26 28 29 29 29 29 29 30 31 31 29 31 31 30 30 30 30 31 31 31 32 33 34 33 33 34 32 31 32 32 31 35 38 39 41 44 44 43 42 40 39 38 39 43 44 40 39 48 52 45 40 41 41 43 45 45 45 45 47 49 49 48 48
33 33 32 32 32 33 33 33 33 35 35 34 33 33 32 31 29 26 27 28 29 28 26 25 27 28 29 29 30 31 30 30 31 31 30 30 31 31 31 30 31 31 32 32 32 34 35 34 32 32 32 32 31 33 32 32 35 39 40 42 44 43 41 41 40 37 35 39 44 46 44 45 50 49 45 43 42 41 43 44 46 47 48 50 51 49 49 49
33 33 33 32 33 33 33 33 34 35 35 33 32 32 31 31 29 26 28 30 29 27 26 27 29 29 29 29 30 31 31 31 31 30 29 30 29 31 31 30 31 33 32 33 34 36 35 33 32 31 31 32 33 34 35 36 38 41 41 40 39 39 40 40 39 37 37 41 48 50 47 47 50 48 45 42 40 40 42 44 47 49 51 52 51 50 50 51
34 34 33 33 33 33 33 33 34 34 34 32 31 31 29 29 29 28 30 31 29 29 29 30 30 30 30 31 31 31 31 31 31 30 29 29 29 30 31 30 31 31 32 35 36 36 35 33 31 31 32 34 34 35 38 40 42 42 40 37 37 37 37 38 39 41 41 44 53 56 48 47 49 44 39 40 42 45 48 49 50 51 51 52 50 49 49 51
35 34 33 33 34 34 33 34 34 33 32 31 30 30 30 30 31 31 32 32 31 32 31 30 31 31 30 31 32 31 30 30 30 29 29 29 30 30 31 32 31 30 32 34 34 34 35 33 32 32 33 34 36 37 37 40 44 42 38 36 37 35 34 37 39 42 43 45 54 54 44 45 48 42 41 45 49 52 54 53 53 53 53 53 53 53 53 54
35 34 34 34 34 34 33 34 34 33 32 30 30 30 31 32 33 33 33 33 32 32 32 31 31 32 32 32 31 30 29 29 29 29 29 29 30 30 30 31 31 31 32 33 33 34 34 34 33 34 34 34 36 37 36 40 43 39 37 37 37 36 37 39 41 43 44 43 47 47 42 47 53 50 50 52 52 53 54 56 57 57 57 57 56 56 56 55
36 36 35 35 35 34 34 35 34 32 31 30 30 31 32 33 33 32 33 33 32 32 33 33 31 31 32 31 30 30 29 29 30 30 30 30 31 30 30 30 31 31 31 31 33 33 34 36 35 36 37 35 36 39 39 40 39 37 39 40 40 40 38 39 41 43 42 41 42 43 44 52 55 53 51 50 53 57 57 58 58 58 57 56 54 54 54 53
36 36 36 36 36 35 35 35 34 33 31 30 32 34 34 34 34 33 33 33 32 31 31 33 32 30 30 30 30 31 31 30 30 30 31 31 31 30 29 30 31 32 32 32 32 31 34 39 39 36 36 36 38 42 41 38 36 38 42 42 42 40 37 37 40 40 39 39 42 42 48 56 54 49 48 51 58 62 59 56 55 55 55 54 53 53 52 51
37 37 38 37 37 36 36 35 34 33 32 32 35 36 35 35 34 33 33 32 32 31 30 32 32 30 30 31 31 32 31 31 31 31 32 32 31 30 29 31 32 33 34 33 32 32 34 40 41 36 35 38 41 41 39 39 38 39 40 40 39 38 38 39 40 42 41 41 43 44 49 56 53 49 54 58 60 60 56 55 56 56 55 53 54 54 51 50
38 38 38 37 37 37 36 35 34 33 33 34 36 37 36 36 36 35 34 33 32 31 32 32 32 31 31 31 31 32 32 32 32 32 32 31 31 30 30 31 32 33 34 32 31 33 33 36 40 39 37 40 41 39 40 43 41 38 37 38 37 36 38 39 40 41 40 40 44 44 45 50 50 52 58 59 56 56 57 57 57 55 54 54 53 52 50 48
38 38 38 37 37 37 36 35 35 34 35 37 37 37 37 37 38 36 35 34 33 32 33 33 32 32 32 32 31 32 32 32 31 31 32 31 30 31 31 31 31 32 33 32 31 34 34 34 40 43 42 42 40 38 40 43 41 38 38 39 39 39 40 41 42 41 39 40 42 42 45 51 51 52 55 55 55 58 58 58 56 54 54 54 52 50 49 47
38 38 38 38 37 37 35 35 36 35 37 38 38 38 38 37 37 37 36 34 34 34 33 32 32 32 32 32 32 32 31 32 32 31 32 32 30 30 30 30 31 32 32 33 33 34 34 35 40 45 45 42 40 39 40 39 36 36 38 40 41 42 41 41 42 42 40 42 44 43 48 54 51 48 51 54 56 58 58 56 55 53 52 52 51 49 48 46
39 39 39 38 38 37 36 36 37 37 38 39 38 38 38 37 37 37 35 34 34 34 33 33 33 33 33 33 33 33 32 32 32 32 31 31 31 30 30 30 32 32 32 33 34 34 35 36 39 43 44 42 42 42 38 35 34 36 38 40 40 41 41 40 42 44 44 46 46 45 48 53 50 48 51 55 56 57 57 56 54 53 52 50 50 49 47 46
39 40 40 39 39 38 37 38 39 39 39 40 39 38 38 37 37 36 35 35 34 34 34 34 34 34 34 33 32 32 32 31 31 31 30 31 31 30 30 31 33 32 32 33 34 35 35 36 38 42 43 42 41 39 35 33 36 38 39 40 41 42 42 41 43 46 45 45 46 44 46 51 52 51 54 56 57 58 58 56 55 53 51 49 49 48 47 47
41 41 41 41 40 38 39 40 40 40 41 40 39 39 39 38 37 36 35 35 34 34 34 35 34 33 33 33 32 32 32 31 30 31 30 30 31 30 31 32 32 32 32 33 34 35 36 36 37 40 43 42 40 38 37 39 40 40 40 42 43 43 44 44 45 45 43 44 47 45 45 53 56 55 56 57 58 57 56 56 54 52 51 49 48 48 48 47
41 41 42 42 41 40 41 41 40 40 40 40 40 40 39 38 37 36 35 34 34 33 33 34 34 33 33 32 32 33 33 32 31 31 31 31 31 31 32 33 33 32 33 33 34 35 35 35 35 36 38 40 40 40 41 44 45 43 42 44 45 45 45 45 45 44 42 45 49 46 48 56 59 57 58 59 58 57 56 55 53 51 50 49 48 48 48 48
41 42 42 42 42 42 43 42 41 40 40 39 40 40 38 38 37 36 34 34 33 33 33 34 33 33 33 32 32 33 34 33 32 31 32 32 31 32 33 34 34 33 32 32 34 34 35 36 36 36 37 38 40 42 42 43 45 44 44 44 45 45 44 43 43 43 44 47 49 48 51 59 61 59 60 60 58 57 56 53 52 50 49 49 48 49 50 49
42 43 42 41 42 42 42 42 41 40 39 38 39 39 38 38 37 35 34 34 34 33 33 34 33 33 33 32 32 33 33 33 32 31 32 32 32 32 33 33 33 33 31 32 34 34 35 37 37 38 40 40 41 43 43 43 44 44 43 43 45 44 44 43 43 45 46 46 47 50 53 58 60 59 60 60 58 57 55 52 51 50 49 49 50 51 52 52
43 44 43 42 42 41 42 42 41 40 39 39 39 39 39 38 37 36 35 34 34 34 34 35 34 33 33 32 32 33 32 32 32 32 31 31 31 32 33 33 33 33 32 33 34 34 35 38 37 38 40 40 40 42 42 42 42 42 41 43 44 43 43 43 44 46 46 44 47 54 56 57 58 57 58 59 58 57 55 53 52 51 50 51 52 53 53 52
44 44 43 43 43 43 42 42 41 41 41 40 41 40 39 38 38 37 35 35 36 36 35 35 34 33 32 32 32 32 32 32 32 32 31 31 31 32 33 33 33 33 33 33 34 34 35 37 36 37 41 41 40 40 40 40 41 41 42 42 42 42 43 43 43 45 46 46 51 56 56 56 56 56 57 59 59 58 55 54 52 51 51 52 53 54 54 53
44 44 43 42 43 43 42 41 41 42 42 41 41 41 39 39 38 37 36 35 36 36 34 34 34 32 32 32 32 33 33 31 31 31 30 31 32 32 33 33 33 33 34 34 35 34 35 36 36 37 41 41 39 38 39 39 40 42 42 41 40 40 41 41 42 45 47 49 53 55 56 55 54 55 57 60 61 59 55 52 51 50 51 54 55 55 55 54
46 46 44 43 43 42 42 41 40 40 42 42 41 40 39 39 38 36 36 36 35 34 33 33 31 30 32 33 32 33 33 31 31 31 31 31 32 33 33 33 33 34 34 34 34 34 34 36 36 36 39 41 39 38 40 41 41 41 39 38 38 39 40 40 43 45 47 51 54 54 53 54 54 55 57 59 60 59 54 51 50 51 54 57 57 56 56 54
47 47 45 44 44 43 42 42 41 42 43 42 41 39 38 38 36 35 36 36 34 34 33 31 30 30 32 33 33 33 32 31 31 32 31 32 33 33 34 34 33 33 34 33 33 33 33 34 36 36 37 40 40 39 41 42 40 36 35 35 37 39 41 43 45 46 46 48 51 52 52 54 56 56 57 59 60 58 54 50 50 54 58 60 58 56 55 52
Wind_Direction
355 355 354 353 352 352 351 350 349 349 348 349 350 349 349 349 349 349 349 348 348 347 346 346 346 345 345 344 343 343 345 348 351 352 349 338 329 326 327 327 328 329 329 329 331 330 331 334 335 336 335 334 334 334 335 337 339 340 341 339 336 334 333 333 331 329 332 331 329 331 333 329 327 328 326 327 325 321 320 316 316 317 315 313 316 321 325 325
349 349 349 349 349 349 348 348 347 347 347 347 348 348 347 347 348 348 348 347 347 346 345 345 345 343 343 344 342 341 341 343 347 350 346 337 331 329 328 328 329 329 330 330 331 332 332 332 333 336 337 335 333 333 333 335 337 337 338 335 332 329 329 330 328 327 328 327 326 327 329 328 324 325 327 326 322 323 322 317 317 317 315 316 317 319 322 323
344 345 346 346 346 346 346 345 345 345 345 345 346 346 346 346 347 347 347 346 346 345 344 343 343 342 341 341 340 338 336 338 343 342 337 335 333 331 330 329 329 330 331 330 329 331 330 329 331 334 336 335 334 333 333 334 333 333 335 332 327 326 327 326 323 322 322 323 324 323 326 326 321 324 326 323 322 323 319 316 318 316 315 317 318 320 320 320
340 341 342 343 343 343 343 343 343 343 342 343 344 344 344 345 345 345 345 345 344 344 343 341 341 340 339 339 338 335 334 337 338 336 334 336 336 334 333 330 329 330 330 330 329 330 330 330 331 332 334 333 332 331 331 331 331 332 331 326 325 329 328 322 320 319 319 322 321 321 325 324 321 323 323 322 323 323 316 314 314 313 314 314 315 317 317 317
335 337 339 340 340 340 341 341 340 341 341 341 342 343 343 343 344 343 343 343 343 342 341 340 340 340 339 338 338 336 335 335 333 333 336 338 337 334 333 331 331 330 331 330 329 329 330 331 330 332 333 329 330 332 329 327 330 329 323 319 321 326 324 320 320 320 320 322 319 320 322 321 322 322 319 318 320 319 314 313 313 312 313 313 312 313 313 313
332 333 335 336 337 338 338 338 338 339 339 339 340 341 341 341 342 341 341 341 341 341 340 340 340 340 339 339 341 340 339 334 329 333 335 335 334 333 333 333 333 332 332 332 329 330 330 329 330 330 330 328 327 328 326 325 327 326 322 320 319 320 320 318 320 320 320 321 317 317 319 320 320 318 317 314 312 311 309 310 312 311 312 312 311 311 310 309
328 330 332 333 334 335 335 336 337 337 337 338 338 339 340 340 340 339 339 340 339 339 339 340 341 341 340 341 343 345 346 337 332 336 335 335 334 332 332 332 334 333 334 333 330 329 329 330 330 327 327 326 324 323 323 323 323 322 320 320 319 318 315 315 318 317 317 316 312 313 317 317 313 316 320 314 310 309 308 311 312 312 314 313 312 310 308 308
326 327 329 330 331 332 333 334 335 336 336 337 337 338 338 338 338 337 338 338 337 337 338 339 339 341 341 342 343 345 345 337 335 337 336 335 332 331 330 329 332 333 333 333 329 326 326 328 325 323 324 323 321 320 322 323 321 318 317 318 319 318 314 315 317 315 314 313 312 313 313 310 309 315 319 313 311 311 312 314 315 315 316 315 312 311 311 311
323 325 326 328 329 330 332 333 333 334 335 335 336 336 336 336 335 335 336 336 336 335 336 337 338 340 341 342 342 341 336 331 332 333 333 332 329 329 329 328 329 330 330 328 327 325 324 322 319 319 319 318 319 319 321 323 320 316 315 318 319 316 315 317 317 315 315 315 314 314 311 308 310 316 317 313 313 314 316 317 316 317 316 314 312 312 311 311
321 322 324 325 327 329 330 331 332 333 333 334 334 334 334 334 333 334 334 334 334 334 334 335 337 339 340 341 341 338 330 328 329 329 329 329 327 327 326 325 326 328 326 324 324 324 322 318 316 317 316 316 318 317 318 320 319 316 316 317 316 315 316 318 317 316 317 315 315 315 312 310 312 317 317 316 316 317 317 316 316 316 315 314 313 312 311 310
318 320 321 324 326 328 329 329 330 331 332 332 332 332 332 332 332 332 333 333 333 333 333 333 335 337 339 340 341 335 328 327 327 327 328 327 327 325 323 322 324 326 325 324 322 321 321 316 315 318 316 317 317 316 315 315 317 316 317 317 316 317 318 318 318 319 319 317 315 314 312 313 317 318 314 314 316 317 317 315 315 315 314 314 313 312 312 310
315 317 320 322 324 326 327 328 328 330 330 331 330 330 330 330 330 331 332 333 332 332 331 332 333 333 336 340 338 330 327 327 326 326 328 327 325 323 323 323 324 326 324 323 320 318 319 316 316 316 315 316 317 318 316 315 317 316 318 317 317 322 321 319 320 320 320 317 316 317 315 316 318 314 312 314 316 317 316 315 315 314 314 314 314 313 312 311
313 316 318 321 323 324 325 326 327 328 329 329 328 328 328 328 329 330 331 332 332 332 331 332 332 330 333 335 331 329 328 329 328 328 328 327 324 323 325 325 325 325 324 322 319 318 319 318 317 314 314 316 315 316 316 317 318 316 318 318 318 322 319 319 320 320 320 316 319 322 318 318 317 313 314 317 318 318 317 316 315 315 315 315 315 314 313 311
311 314 317 320 322 323 324 325 326 327 327 326 326 326 326 327 328 328 330 331 331 331 330 331 331 329 331 329 325 328 328 328 331 332 330 328 326 323 322 325 325 324 323 321 319 319 320 318 318 315 315 315 313 314 315 318 319 317 318 319 321 321 317 320 320 320 320 316 320 323 315 315 318 316 317 318 319 318 316 316 316 316 316 316 316 315 314 312
310 313 316 319 321 322 323 324 325 325 325 325 324 325 326 327 328 328 329 330 329 328 327 328 329 327 329 326 322 326 327 328 332 332 330 329 327 323 321 322 323 323 321 320 319 320 320 319 318 316 315 315 315 317 316 317 319 319 319 319 320 319 316 319 319 318 319 315 319 321 314 314 317 318 319 319 318 317 315 315 316 317 318 318 317 316 314 312
310 313 315 318 320 321 322 323 324 323 323 323 323 324 325 326 327 327 327 329 328 326 325 325 326 326 325 322 319 323 325 325 327 329 329 328 325 322 320 320 321 322 320 318 319 320 321 320 317 316 316 316 317 317 317 318 318 319 321 318 317 317 317 320 319 318 318 315 317 318 312 313 316 317 318 319 318 317 315 315 316 318 319 319 317 315 313 312
309 312 314 317 319 320 321 322 322 322 322 322 322 324 324 325 327 327 327 329 327 324 323 323 324 324 322 320 319 320 320 320 322 325 326 326 324 321 320 320 320 320 319 318 318 320 320 319 315 315 317 317 316 317 319 320 318 318 320 317 315 316 316 318 319 318 319 317 315 313 310 310 313 315 316 319 319 317 315 315 317 318 319 319 318 316 314 313
308 310 313 316 317 318 319 320 320 320 320 321 322 322 322 325 328 327 327 329 327 324 322 323 324 321 318 320 319 316 315 317 319 321 324 324 324 323 320 321 320 318 319 318 318 321 320 317 315 315 317 316 316 320 320 318 317 317 318 317 316 316 315 315 316 317 318 316 313 312 311 310 312 314 316 318 318 317 316 316 317 318 319 319 318 318 317 316
306 308 311 314 316 317 318 318 318 319 319 321 322 321 322 325 327 327 329 330 328 324 320 320 322 316 314 316 317 316 315 315 317 318 321 322 322 322 319 320 321 320 319 317 317 321 320 318 317 316 316 315 315 317 315 312 313 314 315 315 315 316 315 314 313 314 316 315 313 312 311 311 313 315 317 317 317 317 317 317 319 319 320 319 320 320 319 318
305 307 309 312 314 315 316 316 317 318 319 320 322 322 323 325 325 324 328 329 327 323 319 317 316 312 312 314 316 318 317 315 316 317 320 321 320 319 319 320 322 321 319 315 314 318 321 320 316 312 312 312 313 314 313 313 313 313 315 314 313 313 313 315 314 314 316 314 312 313 311 310 312 314 316 317 317 318 318 319 320 320 321 321 321 320 319 317
303 305 307 310 312 314 314 315 316 317 319 320 322 324 324 324 324 322 325 326 324 322 318 315 312 309 307 307 314 319 318 315 314 315 318 319 319 318 318 321 322 320 317 313 313 316 321 319 313 310 309 309 313 315 315 315 315 314 314 314 314 312 311 313 314 313 316 312 311 314 312 310 311 313 315 317 317 317 318 320 320 321 322 320 320 319 317 316
301 303 306 308 311 312 312 313 315 317 318 320 323 325 324 324 323 321 321 322 321 320 317 312 309 308 304 303 311 316 317 316 312 313 317 318 320 319 318 321 321 317 315 315 316 318 321 316 310 309 310 311 315 316 315 315 315 314 314 314 313 313 312 313 313 314 316 312 312 314 311 309 311 312 314 317 317 316 318 321 321 322 321 318 317 317 317 316
300 302 305 307 309 310 311 311 314 317 319 320 323 323 323 322 322 321 320 319 318 319 316 310 306 307 308 305 310 314 315 315 310 311 317 317 319 318 317 319 318 317 316 317 318 318 318 314 311 312 313 314 315 317 317 316 316 313 313 313 312 314 315 313 315 316 315 313 311 312 310 310 311 312 314 316 316 315 318 321 322 321 319 315 316 317 316 316
299 301 303 306 307 308 309 309 312 316 318 321 322 322 321 321 321 320 319 318 318 317 313 307 302 303 305 305 310 313 312 311 309 311 316 317 316 314 314 315 315 317 315 315 317 315 314 313 314 318 318 316 314 316 317 315 315 313 311 311 311 313 313 311 314 316 315 314 313 313 311 310 312 312 314 316 317 317 317 318 319 319 317 315 316 316 316 315
298 300 302 304 305 307 307 308 310 313 315 318 320 320 320 320 320 319 318 319 318 317 312 305 302 301 302 305 310 311 309 309 310 311 314 316 315 312 312 312 314 315 313 314 315 314 313 313 316 319 318 318 316 315 315 314 315 314 312 311 310 312 312 311 315 318 317 315 317 320 314 311 313 312 314 317 317 316 316 317 317 316 315 315 316 315 314 314
296 298 300 302 304 306 306 306 309 311 314 316 317 318 319 319 320 318 319 320 317 315 312 306 304 303 304 307 309 310 308 307 309 311 314 315 313 312 311 311 313 314 313 314 314 314 314 314 318 317 315 317 317 315 314 313 315 315 314 313 311 312 313 313 315 317 316 313 315 320 313 309 312 312 314 317 316 314 316 317 315 313 314 314 314 314 313 312
295 296 298 300 303 305 304 305 308 310 312 314 314 316 317 318 319 317 318 319 316 314 312 307 305 305 306 306 310 311 306 305 309 311 314 313 311 312 310 311 313 313 313 315 314 314 315 316 318 317 315 316 317 316 313 313 315 312 313 315 314 314 313 313 314 314 313 311 313 316 311 307 308 311 316 318 314 314 316 316 314 314 314 314 314 314 313 312
293 295 297 299 301 303 303 304 306 309 311 311 313 314 315 317 317 317 319 317 313 313 311 307 305 306 307 308 312 311 305 306 308 308 312 314 312 311 309 309 310 309 312 313 311 313 314 314 315 315 316 316 315 314 312 313 314 311 313 315 314 313 312 313 313 311 312 312 312 315 313 308 307 312 319 318 314 315 317 317 317 316 315 315 315 314 314 312
292 293 295 297 299 301 303 304 305 307 309 310 311 312 314 315 315 318 318 311 310 311 308 307 306 306 310 310 311 311 308 308 307 306 311 313 311 311 308 308 310 309 311 312 309 311 313 312 313 314 315 314 315 314 313 314 315 313 315 315 313 312 311 312 312 311 313 312 311 314 315 311 308 313 320 319 317 319 318 317 316 314 314 314 314 314 313 312
290 292 294 296 297 299 302 303 304 307 308 309 310 310 313 314 314 317 313 307 308 308 306 307 305 306 311 311 308 309 309 307 306 308 310 309 311 313 309 309 312 312 312 314 311 310 311 312 313 315 314 312 314 315 313 314 316 316 317 316 314 314 313 313 313 313 312 310 311 314 317 314 311 315 321 320 319 318 316 316 315 314 315 315 315 314 312 312
289 290 292 294 296 297 300 302 303 306 307 307 308 309 311 312 313 312 307 305 308 306 305 306 305 308 311 309 306 307 308 307 307 309 309 308 310 312 311 310 312 312 312 313 312 312 313 314 315 316 315 314 315 316 315 314 317 319 318 318 316 315 316 315 315 315 311 310 313 316 318 315 310 314 319 318 317 317 317 319 319 318 318 316 315 313 312 312
288 289 291 293 294 297 298 300 303 306 306 306 306 308 310 311 310 305 304 308 307 304 305 305 304 306 308 307 305 305 306 306 307 309 308 307 308 310 311 310 310 311 311 311 312 314 313 313 316 316 316 319 317 316 315 315 319 320 319 319 319 318 317 316 317 316 311 310 313 315 317 312 308 314 319 319 320 319 318 319 319 319 317 316 315 313 312 311
287 288 289 291 293 295 297 299 302 304 304 304 305 308 310 309 306 303 306 307 304 303 305 304 305 305 305 306 304 304 306 305 306 308 305 306 308 308 309 309 309 308 308 309 311 315 315 314 318 318 316 320 319 318 317 317 320 320 319 321 321 319 318 316 316 315 311 310 312 315 316 312 312 317 320 319 319 317 315 316 316 316 315 314 314 313 312 311
285 286 287 289 291 293 295 298 301 303 303 302 304 306 307 304 301 303 305 303 302 304 304 303 305 305 304 304 303 304 305 304 305 307 306 307 307 307 307 308 310 307 306 309 310 313 314 312 316 317 315 318 319 319 317 317 319 319 318 320 320 320 318 314 313 312 312 311 311 314 314 312 316 318 316 316 315 315 316 316 316 316 315 314 313 312 312 311
284 284 286 288 290 291 294 297 300 301 300 301 303 303 301 300 301 304 304 302 303 305 303 302 303 303 302 303 303 304 304 302 304 305 306 306 305 305 306 306 307 307 307 309 309 310 310 308 311 315 316 317 318 317 316 318 319 317 318 319 318 317 314 310 308 307 309 310 310 312 311 310 314 315 315 317 316 317 319 319 318 317 316 315 314 314 314 312
282 283 285 286 288 290 292 296 298 298 297 299 300 298 297 299 300 302 302 303 304 303 302 302 301 300 300 301 302 304 304 302 303 304 304 304 303 304 305 304 305 307 307 308 309 310 309 308 310 314 316 317 317 317 316 317 318 317 318 318 315 314 312 310 309 308 309 309 309 312 310 310 314 315 318 320 319 319 320 319 318 317 317 317 316 316 315 314
281 282 284 285 287 288 291 294 295 294 295 297 296 295 297 298 299 300 302 302 302 302 302 300 299 298 298 299 299 301 302 302 303 304 303 303 303 303 303 304 305 306 306 306 308 308 307 307 308 311 314 315 316 318 318 318 320 319 318 316 315 315 315 314 314 313 313 309 309 313 311 312 316 318 320 322 320 320 320 319 318 317 318 318 317 317 317 316
280 281 283 283 285 287 289 291 291 291 293 295 294 295 298 298 298 300 301 301 301 301 299 296 296 296 296 297 297 298 300 301 302 303 303 302 302 302 303 303 304 306 306 306 307 307 307 308 309 311 315 315 316 319 318 318 320 319 316 317 319 318 317 318 317 316 315 311 311 313 312 312 317 319 320 321 321 320 320 319 319 318 319 318 318 318 317 316
279 281 283 283 284 286 287 288 289 290 292 293 294 296 297 297 298 299 298 299 300 298 295 293 294 296 296 295 296 297 299 299 299 301 302 301 300 302 304 303 303 306 306 306 305 305 308 309 308 311 316 316 316 318 316 316 319 319 318 319 319 318 318 318 316 315 314 312 311 313 312 313 318 319 319 320 321 320 320 320 319 319 318 318 317 317 316 315
278 281 282 282 284 285 285 287 287 288 290 292 293 295 297 297 297 297 296 297 297 295 293 293 294 295 295 294 294 297 299 298 298 299 299 299 300 301 303 303 303 304 305 306 305 306 309 307 305 310 315 316 316 316 315 316 318 319 319 320 320 320 319 317 314 313 313 312 313 314 311 313 319 320 319 320 320 320 320 319 318 318 317 317 316 316 315 314
277 280 281 282 283 284 284 285 286 287 290 293 294 294 296 296 296 296 295 295 295 294 292 291 292 292 292 293 293 295 298 298 298 299 298 298 300 300 301 302 301 302 303 305 306 307 309 307 306 309 314 315 314 313 314 315 315 316 319 320 320 320 321 319 315 315 314 313 314 314 311 314 321 321 319 320 320 320 320 318 317 317 316 316 315 315 314 313
276 279 280 280 281 282 283 284 286 287 289 292 293 294 294 295 296 295 294 293 293 293 292 290 290 291 291 292 292 294 296 296 296 297 297 298 299 299 299 300 300 301 302 304 305 306 308 309 307 308 311 312 311 313 314 313 314 316 318 319 319 319 321 318 314 315 316 313 313 311 309 315 321 321 320 320 320 319 319 318 317 316 316 315 314 314 313 312
275 277 279 280 279 280 282 283 285 287 289 291 293 293 293 293 293 293 292 292 292 292 291 290 289 290 290 292 293 292 294 295 295 296 297 298 298 297 297 300 301 302 303 305 306 307 309 310 309 309 310 311 311 314 315 314 317 318 317 318 318 319 318 315 312 314 315 314 315 313 311 315 320 321 321 321 320 319 319 318 317 317 316 315 314 313 313 312
276 277 278 279 278 279 281 282 284 286 288 291 292 292 292 291 291 291 291 290 290 291 290 289 289 290 291 292 293 291 292 294 295 295 296 296 295 294 297 301 301 302 303 304 305 308 309 309 311 312 313 313 314 315 314 314 316 317 316 317 318 317 317 315 314 315 314 314 315 314 313 316 320 321 321 321 320 319 319 319 318 317 316 315 314 313 312 311
276 277 278 278 278 278 280 282 284 286 287 289 290 290 290 290 289 289 289 289 289 289 289 289 289 291 291 292 293 292 291 292 292 293 295 295 294 294 297 300 301 301 302 304 306 308 307 307 310 311 311 312 313 313 313 314 315 316 317 318 318 318 318 317 317 317 315 314 314 314 313 314 318 321 321 322 321 320 320 320 319 317 316 315 314 313 312 311
275 276 277 279 278 278 280 282 284 285 286 287 289 289 287 287 289 288 287 288 288 288 288 288 289 290 290 289 290 290 290 291 291 291 292 293 293 294 296 298 300 300 301 307 309 309 307 307 307 306 304 306 307 309 312 314 314 315 317 317 317 318 318 318 317 316 315 314 314 314 313 314 318 322 322 322 322 321 321 321 319 318 317 315 315 313 313 311
273 275 276 278 279 278 280 282 282 284 285 284 286 288 286 285 288 288 287 287 287 287 288 288 287 287 286 286 288 288 288 290 289 288 290 291 293 295 296 297 300 300 301 306 309 309 307 306 305 303 302 304 306 308 311 312 312 314 315 316 316 317 317 317 316 315 315 316 315 316 316 315 318 321 322 322 322 321 321 321 320 319 317 315 314 313 313 312
271 274 275 276 277 278 280 280 280 281 283 283 284 286 286 284 285 286 287 288 287 285 285 286 285 284 284 284 285 286 286 287 287 287 289 291 293 296 298 298 300 301 303 306 307 307 306 304 303 303 304 305 306 308 310 311 312 314 314 314 314 315 316 316 315 316 316 315 314 317 317 317 319 321 321 321 322 321 321 320 318 317 316 315 314 313 313 312
271 274 276 276 277 278 279 278 277 277 279 281 283 284 283 283 283 284 287 287 286 284 283 283 284 283 282 283 283 284 284 284 286 287 288 291 292 294 297 298 299 301 304 305 304 305 305 304 304 304 305 306 307 308 310 311 312 313 313 313 313 314 315 316 316 317 316 315 314 316 317 317 320 322 321 322 322 320 319 318 317 316 315 315 314 313 313 312
269 272 274 276 278 278 279 278 277 277 278 279 281 282 281 280 280 283 286 284 283 284 283 282 282 281 281 282 281 282 282 282 284 286 287 290 293 293 296 297 298 301 303 304 304 304 304 304 305 305 306 307 308 309 311 312 313 313 313 313 314 314 316 317 318 319 319 317 317 318 318 319 322 323 322 323 322 320 319 318 317 316 316 316 314 313 313 312
268 270 271 274 277 277 277 277 277 277 278 279 279 280 280 279 279 281 284 282 281 282 282 280 281 282 283 282 280 280 281 282 284 285 285 288 291 292 295 296 297 300 302 302 303 303 302 303 306 308 307 307 310 312 312 313 314 313 314 316 317 317 318 318 319 321 321 319 319 320 320 321 324 325 324 323 322 321 320 320 318 317 318 317 314 313 312 311
267 270 271 273 276 275 274 275 275 275 278 279 278 278 279 279 279 279 281 283 282 282 281 279 279 282 283 281 279 280 281 281 283 284 286 288 289 290 293 294 295 298 301 301 302 302 302 303 305 308 307 307 311 313 313 315 317 316 318 321 319 318 318 317 318 320 321 321 321 321 321 322 324 325 324 323 323 322 321 321 320 319 319 317 314 312 312 312